User: anonymous   Login
Location: Boulin
(43.2500°N, 0.1333°E)
Time: 05:52:35
(UTC+00:00)
Language:

Cosmos 2279 Rocket - Orbit

View from above orbital plane
View from above orbital plane
View from above satellite
View from above satellite

Ground track
Ground track

The orbit is defined by the following mean orbital elements,

1 23093U          26040.74503122 +.00000000 +00000-0 +87095-4 0 00009
2 23093  82.9442 283.5549 0010772 140.3089 219.8859 13.78226187    03
Epoch (UTC): 09 February 2026 17:52:50
Eccentricity: 0.0010772
inclination: 82.9442°
perigee height: 962 km
apogee height: 978 km
right ascension of ascending node: 283.5549°
argument of perigee: 140.3089°
revolutions per day: 13.78226187
mean anomaly at epoch: 219.8859°

The dashed part of the orbit path shows where the satellite is in the earth's shadow,  

DLR